Погода в Демре

Турция     36°15′13″N   29°58′39″E
темп.,
°C
ветер,
м/с
пор.,
м/с
влажн.,
%
обл.,
%
осадки,
мм/ч
давл.,
гПа
погр.,
м
17 апреля, сб
сб1700:00+15св1165100 0.0 101716
03:00+15ссв115876 0.0 101612
06:00+16ююв1153100 0.0 101616
09:00+20в3343100 0.0 1016124
12:00+21юв3340100 0.0 1018303
15:00+21юв223991 0.0 1016245
18:00+21ссв0043100 0.0 101790
21:00+20ссз1237100 0.0 101712
18 апреля, вс
вс1800:00+18всв334783 0.0 101633
03:00+19с3341100 0.0 101716
06:00+17св114589 0.0 101612
09:00+23в113553 0.0 1017136
12:00+24ююв223386 0.0 1017297
15:00+25юв123199 0.0 1016277
18:00+23в2240100 0.0 101573
21:00+21всв2236100 0.0 101512
19 апреля, пн
пн1900:00+21св1139100 0.0 101511
03:00+22св3331100 0.0 101217
06:00+22ссв3331100 0.0 101215
09:00+23всв4535100 0.0 101261
12:00+26в2328100 0.0 1011654
15:00+24в4538100 0.0 1009300
18:00+22вюв2348100 0.0 1008189
21:00+17зсз2267100 0.0 100826
20 апреля, вт
вт2000:00+19зсз4449100 0.0 100646
03:00+17зсз565769 0.0 100673
06:00+15ссв336081 0.0 100831
09:00+18юз21580 0.0 1011406
12:00+20юз43450 0.0 1011637
15:00+22юз65310 0.0 1010938
18:00+20зюз45420 0.0 1010275
21:00+16ссз22580 0.0 101225
21 апреля, ср
ср2100:00+14св12700 0.0 101416
03:00+13всв22789 0.0 101492
06:00+12всв22740 0.0 101599
09:00+16юв22700 0.0 1016453
12:00+17ююз32655 0.0 1017582
15:00+18ю22535 0.0 1016455
18:00+18зюз22584 0.0 1015342
21:00+15ссв22720 0.0 101715